Regional Weather Roundup
Issued by NWS Albany, NY

Home | Current Version | Previous Version | Graphics & Text | Print | Product List | Glossary Off
Versions: 1 2 3 4 5 6 7 8 9 10 11 12 13 14 15 16 17 18 19 20 21 22 23 24 25 26 27 28 29 30 31 32 33 34 35 36 37 38 39 40 41 42 43 44 45 46 47 48 49 50

000
ASUS41 KALY 031210
RWRALY

NEW YORK STATE HOURLY WEATHER ROUNDUP
NATIONAL WEATHER SERVICE ALBANY NY
800 AM EDT THU SEP 03 2015

NOTE: "FAIR" INDICATES FEW OR NO CLOUDS BELOW 12,000 FEET WITH NO
SIGNIFICANT WEATHER AND/OR NO OBSTRUCTIONS TO VISIBILITY.

NYZ032-033-038>043-046>054-057>066-NYZ062>081-031300-
EAST


CITY           SKY/WX    TMP DP  RH WIND       PRES   REMARKS
ALBANY         PTSUNNY   69  65  86 CALM      29.92R FOG
GLENS FALLS    MOSUNNY   64  62  93 CALM      29.92R FOG
POUGHKEEPSIE   SUNNY     66  62  87 CALM      29.91R
NEWBURGH       SUNNY     66  66 100 CALM      29.93R HAZE
MONTGOMERY     MOSUNNY   65  63  93 CALM      29.92S FOG
WHITE PLAINS   SUNNY     72  66  81 NW9       29.89R
ISLIP          CLOUDY    73  71  93 N7        29.87R FOG
NEW YORK CITY  MOSUNNY   77  65  66 NW6       29.88R
CENTRAL PARK   SUNNY     76  65  68 NW3       29.92R HAZE
$$

NYZ005>009-017-018-044>046-055-056-031300-
CENTRAL


CITY           SKY/WX    TMP DP  RH WIND       PRES   REMARKS
FULTON         PTSUNNY   71  68  90 CALM      29.94R FOG
SYRACUSE       CLOUDY    69  67  93 E3        29.93R FOG
ROME           CLOUDY    64  62  93 CALM      29.95S
ELMIRA         FOG       66  66 100 SW6       29.97R VSB 3/4
BINGHAMTON     FOG       67  66  97 NW6       29.99R VSB 1/2
MONTICELLO     MOSUNNY   64  64 100 CALM      29.98S
$$

NYZ026>034-041>043-031300-
NORTH


CITY           SKY/WX    TMP DP  RH WIND       PRES   REMARKS
WATERTOWN      FOG       70  69  97 S3        29.92S VSB 1/4
FORT DRUM      NOT AVBL
MASSENA        CLOUDY    71  68  90 CALM      29.93R FOG
SARANAC LAKE   CLOUDY    66  65  96 SW5       29.96R FOG
PLATTSBURGH    CLOUDY    69  67  93 CALM      29.90R FOG
$$

NYZ001>004-010>016-019>021-031300-
WEST


CITY           SKY/WX    TMP DP  RH WIND       PRES   REMARKS
NIAGARA FALLS  FOG       70  70 100 S3        29.95R VSB 1/8
BUFFALO        PTSUNNY   71  68  90 S5        29.97R FOG
DUNKIRK        MOSUNNY   71  68  90 S6        29.97R
JAMESTOWN      CLOUDY    64  61  88 CALM      30.02R VSB<1/4
WELLSVILLE     SUNNY     68  64  87 CALM      30.05R FOG
ROCHESTER      PTSUNNY   70  68  93 SW3       29.95R FOG
PENN YAN       MOSUNNY   71  67  87 CALM      29.97R FOG
$$

             KEY
       WCI = WIND CHILL INDEX
       VSB = VISIBILITY
       HX  = HEAT INDEX
$$



USA.gov is the U.S. government's official web portal to all federal, state and local government web resources and services.